Theta_e
329 321 315 312 300 298 295 296 300 301 302 306 308 308 306 309 308 304 321 331 336 338 346 346 347 349 348 345 343 341 337 335 333 330 328 327 327 327 327 327 327 327 328 329 330 330 332 334 337
319 315 312 307 295 291 293 298 297 303 307 308 308 308 305 306 317 319 324 332 336 339 342 343 344 346 344 342 339 336 333 331 327 326 325 324 325 325 325 325 325 325 326 327 328 328 328 329 330
316 314 305 299 294 290 293 297 301 305 307 308 307 308 307 308 315 321 329 334 337 338 341 341 342 343 341 338 335 332 329 326 324 323 322 323 322 322 323 323 324 325 326 326 327 327 326 326 326
311 307 304 294 293 296 296 300 302 304 306 309 309 304 311 317 316 323 332 335 335 336 337 339 341 342 338 334 331 328 325 322 321 321 321 320 320 321 321 322 323 323 323 324 325 325 325 324 325
310 305 296 292 292 297 298 302 300 303 306 307 308 304 308 314 320 328 331 335 335 333 335 337 338 338 335 331 328 325 321 319 319 318 318 319 319 318 319 320 320 320 321 322 322 323 322 323 323
300 301 292 290 293 297 298 300 298 299 305 307 305 305 307 314 318 326 330 332 335 332 334 334 331 333 332 329 325 321 319 317 317 317 317 317 317 316 317 318 318 318 320 321 321 320 319 319 320
301 297 292 293 293 295 297 299 296 299 301 303 307 302 307 312 321 326 329 332 333 334 333 331 329 327 326 325 323 320 317 316 316 315 314 314 314 315 316 316 316 318 319 320 319 319 319 319 319
304 300 294 292 291 294 300 301 301 300 301 304 306 300 302 311 322 324 328 330 330 330 329 327 325 322 318 315 318 318 318 315 312 311 312 314 315 317 317 317 315 317 317 317 318 318 318 319 318
309 295 292 293 293 294 301 300 303 304 300 302 306 305 311 317 321 321 322 325 325 326 326 324 322 320 317 313 311 314 315 314 313 312 315 313 311 313 313 316 315 316 317 318 318 319 318 318 318
300 293 295 298 298 299 302 301 301 298 299 299 302 309 312 315 317 317 317 319 320 320 321 321 318 316 314 314 308 309 310 309 309 311 312 313 313 312 313 312 315 317 317 317 319 319 319 319 313
299 294 299 300 302 302 301 299 301 298 298 301 302 304 309 310 312 313 315 317 318 319 319 318 317 313 312 308 309 309 309 309 310 310 312 313 313 312 310 309 309 310 312 311 313 315 314 314 313
297 300 300 302 302 301 299 300 299 300 300 305 304 305 307 307 308 310 312 314 316 317 318 318 315 312 311 309 308 309 307 308 309 310 312 310 310 309 309 308 308 309 310 309 312 315 316 317 319
298 299 301 301 300 300 301 297 298 299 303 305 307 305 302 303 305 309 311 312 315 315 317 316 313 311 311 309 307 307 307 308 309 310 312 311 309 308 309 309 309 309 309 310 313 317 317 315 316
302 300 300 301 300 301 299 297 299 300 305 304 305 302 303 305 306 305 308 309 313 315 316 315 313 311 310 308 307 307 308 308 310 311 311 312 310 309 309 308 309 308 310 311 316 317 313 314 316
303 297 299 300 300 300 301 297 297 302 304 303 303 303 303 304 306 305 307 310 311 314 314 314 312 311 308 307 307 307 309 310 310 310 311 311 312 310 308 308 308 309 311 315 317 315 314 314 316
297 297 292 298 300 300 298 295 302 304 303 304 305 305 306 306 304 305 306 306 309 314 313 313 312 310 307 307 307 308 309 308 309 310 310 311 311 310 308 307 308 311 316 316 315 312 314 313 314
295 288 290 295 301 300 296 295 301 303 303 302 302 303 304 303 304 304 305 305 307 312 312 309 309 307 307 308 308 308 309 309 310 310 309 309 310 310 308 308 309 315 316 315 313 314 314 313 311
289 289 293 293 297 298 296 295 301 303 301 300 300 301 301 302 302 304 304 307 307 310 310 308 307 306 307 308 307 308 308 309 310 307 307 308 308 309 308 310 314 314 315 314 313 311 314 313 311
294 292 290 295 298 294 296 295 298 299 298 298 298 298 299 299 302 303 304 306 307 308 308 307 305 306 307 306 305 305 306 307 308 306 308 308 308 309 309 313 314 315 314 313 314 311 313 310 313
293 291 291 294 296 293 295 294 297 296 296 296 296 296 297 298 299 302 303 304 305 305 305 306 306 307 307 307 307 307 307 308 307 307 307 308 308 309 309 313 313 314 313 314 313 312 311 311 311
292 291 290 291 293 294 293 292 293 295 296 297 296 296 297 297 297 299 302 303 303 303 304 306 306 306 306 307 308 308 309 308 307 306 305 307 308 309 311 313 313 313 313 313 313 313 313 311 310
288 293 294 292 289 283 292 284 289 293 293 293 294 293 293 295 298 300 301 301 303 303 305 306 306 306 308 308 307 306 306 304 306 306 306 306 308 309 311 313 312 315 314 312 314 313 311 311 306
291 295 293 292 288 287 287 284 289 294 290 290 291 292 292 295 297 298 299 302 303 304 303 304 305 306 307 307 307 306 306 306 306 305 306 306 307 309 311 313 313 313 314 314 311 313 311 309 307
296 294 294 293 290 280 288 287 286 285 287 289 290 291 291 293 294 297 300 302 302 302 302 303 303 303 305 305 306 306 307 306 304 306 305 306 307 309 310 314 314 313 315 313 314 313 311 314 308
293 290 282 279 278 280 287 285 284 287 288 288 288 288 290 291 291 292 293 294 295 296 298 301 302 302 303 303 304 305 306 306 306 307 308 308 309 309 311 313 314 314 314 314 314 313 314 315 309
290 290 284 278 279 280 284 281 283 288 290 290 289 289 289 288 289 289 289 290 291 293 294 295 296 297 298 301 302 304 306 306 307 307 308 308 310 312 314 314 313 313 314 314 313 313 313 311 310
289 285 290 282 278 279 283 283 286 288 287 287 287 287 286 287 287 287 288 289 289 290 291 292 293 293 295 296 297 301 304 305 305 307 307 308 310 311 312 312 314 315 314 314 313 313 312 312 312
290 292 284 284 274 275 280 281 282 285 284 285 284 284 285 286 286 287 287 287 288 289 289 289 290 290 292 294 296 298 300 303 305 306 306 307 308 309 309 311 312 313 313 313 312 312 313 312 311
288 287 287 288 284 278 277 278 285 284 285 283 283 284 284 285 285 285 286 287 287 287 287 287 288 288 289 290 291 292 293 295 298 300 301 303 306 307 308 309 310 311 313 312 311 311 312 311 311
289 288 289 282 280 280 280 278 287 285 285 285 284 284 285 285 285 285 285 286 286 286 286 286 287 287 288 289 289 289 290 291 291 292 294 297 299 303 305 308 308 309 310 312 311 310 311 311 310
Wind_Speed
10 10 5 3 1 2 6 4 4 1 1 5 6 7 3 8 5 3 1 3 11 15 13 10 13 10 13 13 12 13 10 9 7 7 7 7 8 8 9 9 10 11 11 11 10 11 11 11 13
8 7 3 4 2 4 6 5 4 6 7 3 3 4 3 5 7 7 7 4 9 14 12 10 13 15 14 13 12 12 9 8 7 6 6 7 8 8 9 10 10 11 11 11 12 12 12 12 12
9 7 2 3 4 5 3 4 5 8 4 2 1 1 4 4 7 5 8 8 10 12 11 12 15 15 14 13 12 10 9 8 7 6 6 7 7 8 8 9 10 11 11 12 12 12 12 11 11
5 3 4 2 7 9 4 8 7 5 2 4 6 2 6 8 4 6 7 7 10 13 10 9 13 12 13 11 11 10 8 7 6 6 6 6 7 7 8 9 10 10 11 11 11 10 10 10 11
4 4 4 4 11 3 4 7 3 2 6 7 2 2 5 6 7 7 7 6 11 10 8 7 13 12 11 10 10 9 7 6 6 5 5 5 6 8 9 9 9 10 10 10 11 11 12 12 13
4 2 3 6 9 3 5 6 1 4 2 6 2 6 4 5 8 7 5 6 10 11 7 8 10 10 10 10 10 8 7 5 5 5 6 6 7 8 8 8 8 8 10 11 12 12 12 12 13
3 3 6 6 5 6 3 4 3 3 3 2 5 4 4 7 7 7 7 7 9 11 9 8 7 8 10 10 8 8 7 5 5 5 5 7 8 6 5 5 6 8 12 12 12 13 14 15 14
3 3 6 3 4 3 5 5 3 0 2 3 2 1 4 3 8 4 6 7 7 7 6 8 8 7 7 6 7 6 6 4 3 3 4 6 9 8 7 4 2 9 11 12 13 14 14 15 15
2 3 4 6 6 2 6 3 2 2 2 1 5 3 6 8 7 5 5 5 5 5 4 7 7 7 7 8 5 5 3 1 3 4 3 6 3 4 7 1 5 9 9 11 12 12 13 14 14
4 3 4 6 6 7 7 3 3 2 4 2 3 7 8 7 7 7 7 7 6 7 4 5 6 6 5 4 7 5 5 3 1 2 4 4 5 3 3 6 8 10 10 13 13 12 12 9 4
6 4 5 6 10 9 7 0 2 3 3 3 2 5 10 8 7 7 7 8 9 9 6 4 6 7 6 3 4 1 1 1 1 2 3 3 3 3 3 3 4 4 3 3 5 5 4 6 5
4 6 7 3 5 5 4 7 5 5 7 7 6 6 7 8 7 8 8 8 9 9 10 8 7 6 6 4 3 4 2 2 2 3 2 2 3 3 3 2 4 4 3 5 4 3 6 6 6
5 6 2 3 1 3 6 5 5 11 9 7 6 6 3 5 5 7 8 6 6 8 9 9 8 7 5 3 2 3 2 3 2 2 4 4 4 4 4 3 3 3 4 4 4 5 4 7 8
2 9 10 3 3 4 2 3 2 5 5 2 4 2 4 6 2 1 6 5 6 7 8 9 8 7 7 3 3 3 3 3 2 3 3 3 3 3 3 4 4 4 4 4 4 4 4 5 7
1 3 7 8 5 3 1 6 8 8 3 2 2 5 1 1 4 4 5 7 6 6 7 9 9 8 7 4 3 3 3 0 3 2 3 3 3 4 4 3 4 4 4 5 4 5 3 5 4
5 5 3 5 9 2 1 3 7 5 4 8 8 2 6 12 13 13 12 11 2 8 7 8 8 8 6 5 2 3 4 3 3 2 2 5 4 4 4 2 3 4 3 3 3 3 4 4 3
4 3 7 4 4 4 5 2 5 2 5 6 10 13 13 13 15 14 12 10 9 8 9 9 8 8 6 5 4 4 3 3 2 3 4 5 4 3 3 2 2 4 3 3 3 3 3 2 3
5 4 2 3 4 5 5 7 5 7 12 12 12 13 14 13 13 11 10 9 6 9 10 9 7 8 6 3 3 3 3 2 2 3 3 3 3 3 4 3 4 3 3 3 2 4 3 2 1
3 2 3 5 3 1 4 3 3 12 13 13 13 14 13 14 13 10 9 9 9 9 9 8 9 7 3 1 1 2 3 2 3 3 4 4 2 2 4 3 3 3 3 3 4 2 3 2 4
3 3 1 4 2 1 5 5 12 13 12 13 12 12 13 13 13 10 9 9 10 9 9 9 7 5 5 4 3 3 2 3 3 1 2 3 3 3 4 4 2 3 3 4 4 4 3 2 4
6 5 2 2 3 5 3 4 9 9 11 13 14 12 13 12 10 10 13 13 10 10 9 8 8 8 6 5 2 1 1 1 2 2 2 2 3 3 4 4 3 1 2 3 3 4 6 4 4
8 6 4 3 1 3 1 3 5 11 12 15 13 13 11 9 10 10 11 10 9 8 8 9 8 7 6 8 6 6 3 4 4 3 2 2 3 3 4 4 4 5 2 4 2 2 3 4 4
2 1 7 5 3 5 2 4 1 11 8 13 11 11 10 10 10 9 9 9 8 8 7 7 7 7 7 7 7 5 6 4 2 2 3 2 0 2 3 2 4 5 4 2 2 3 4 2 2
6 6 6 0 3 2 6 6 1 4 4 6 8 10 11 12 13 15 13 12 11 9 8 7 8 7 7 7 7 7 7 6 5 5 3 2 1 1 2 3 1 3 3 4 4 3 4 3 2
3 5 2 2 1 5 4 3 3 7 7 7 8 9 10 10 10 12 13 13 12 13 13 10 9 9 9 8 8 7 8 6 6 6 5 5 4 2 3 3 2 3 3 3 3 4 4 4 2
6 2 3 6 5 4 2 5 2 7 7 8 9 8 9 9 10 10 11 10 11 12 12 12 13 12 13 11 8 7 9 4 3 5 4 5 4 4 6 5 3 4 3 4 2 3 4 2 3
5 4 0 4 1 4 5 5 4 7 7 8 9 9 9 9 10 10 10 11 11 11 13 13 13 12 12 10 9 8 7 7 5 5 4 3 4 4 6 6 5 5 4 4 4 2 4 4 3
0 1 3 3 3 3 1 5 4 8 8 8 8 8 8 8 9 10 11 12 11 11 11 13 13 13 12 13 11 11 11 10 9 5 5 5 5 4 5 6 6 5 5 4 4 3 3 4 3
3 3 1 1 2 3 3 2 5 9 8 8 7 8 7 8 8 9 9 10 10 10 11 12 12 13 13 13 12 13 13 14 13 13 13 13 9 7 5 4 6 6 5 5 4 4 5 5 5
3 2 5 4 4 1 2 2 6 7 7 8 8 7 7 7 7 8 9 10 10 11 10 12 12 13 13 12 12 14 13 14 14 14 14 13 13 13 12 6 6 7 7 6 5 5 5 5 5
Wind_Direction
289 260 266 290 237 217 258 240 55 89 141 47 341 32 302 42 25 107 320 35 114 123 125 140 133 121 112 113 107 91 86 84 81 70 55 43 34 26 20 15 9 2 354 351 344 337 333 332 330
296 271 276 265 256 204 234 142 173 143 73 41 59 283 299 76 75 115 134 221 124 121 146 136 116 116 114 108 103 100 100 95 82 67 50 38 31 23 14 9 3 356 349 344 342 340 338 334 331
279 274 277 213 207 252 64 67 118 70 71 152 144 37 357 73 48 86 92 171 116 101 97 113 115 118 113 106 102 105 105 96 78 60 48 39 29 17 7 2 358 353 348 343 340 337 332 328 323
252 225 265 269 240 242 60 66 38 116 97 26 11 121 83 36 50 69 138 151 116 103 103 119 121 108 96 109 112 115 110 102 86 63 45 30 19 7 358 358 357 355 349 344 339 333 327 325 318
250 259 255 203 265 116 41 71 7 300 140 148 160 175 95 68 81 104 133 140 114 107 106 115 95 108 126 126 123 119 113 100 80 56 32 13 4 355 353 352 351 352 349 345 341 334 327 324 313
256 262 245 234 227 71 111 90 60 304 213 96 187 262 80 121 115 117 137 150 115 118 145 125 110 122 124 128 128 123 114 93 62 42 20 359 349 350 347 340 343 341 341 336 337 332 326 320 310
274 211 257 277 262 139 124 44 150 356 4 32 344 351 115 112 95 128 158 127 122 142 153 127 130 115 110 114 119 120 109 84 49 26 13 344 327 320 322 318 332 336 331 328 326 325 319 314 308
301 263 268 227 342 22 113 140 78 346 51 171 21 301 149 133 123 134 119 112 120 117 132 139 140 150 138 130 117 101 95 81 58 355 345 318 302 269 269 291 16 325 318 319 318 315 314 308 306
286 296 251 225 181 206 114 193 84 82 345 172 163 360 108 114 111 110 120 126 137 136 162 137 140 160 148 137 124 114 117 143 264 262 247 309 291 359 21 82 320 306 304 307 306 307 309 298 291
223 254 264 17 27 19 106 39 114 181 184 257 192 112 126 145 145 169 175 176 176 158 179 149 141 137 127 143 135 195 153 217 42 25 10 345 333 350 308 307 282 292 284 284 304 311 319 304 288
202 225 301 16 31 15 350 21 116 318 254 213 210 199 152 176 174 203 202 183 183 169 157 180 151 140 137 123 128 149 147 85 8 50 60 335 326 358 355 12 337 309 314 293 329 335 337 306 308
286 250 281 7 46 347 340 330 315 239 246 340 339 37 156 167 190 207 231 214 166 164 162 174 156 143 162 129 149 155 124 66 10 23 64 18 334 354 333 353 321 332 334 323 333 322 315 315 334
193 282 258 300 150 294 309 269 264 276 281 297 343 139 234 281 245 199 199 222 165 157 155 158 151 147 148 128 135 75 73 85 39 356 24 42 357 345 349 344 324 331 333 352 333 325 6 5 358
148 226 269 195 263 222 285 275 37 268 117 115 124 327 252 233 273 280 174 207 160 153 156 148 150 140 130 170 129 129 84 36 32 31 58 12 17 344 358 341 335 337 2 334 341 357 11 17 8
347 281 252 238 205 254 280 277 221 269 151 310 267 215 187 249 169 221 218 186 186 163 158 140 138 134 132 142 132 109 90 93 71 43 29 47 19 358 341 336 323 10 354 351 347 21 11 19 347
205 197 220 46 128 153 91 327 88 87 73 11 331 253 111 54 44 22 12 4 346 137 142 121 116 116 129 117 133 76 64 27 57 40 13 54 21 13 324 346 23 10 353 331 24 355 5 4 6
216 247 201 137 186 122 201 193 133 106 343 34 36 42 44 35 29 15 2 349 336 115 110 101 103 111 112 103 89 84 79 39 43 25 38 42 7 10 318 18 25 12 17 359 2 8 7 335 25
191 205 275 143 142 198 182 273 312 7 66 60 44 41 32 28 32 12 357 341 1 87 93 97 100 107 101 88 91 95 118 80 55 46 49 4 43 353 334 358 33 20 25 12 46 21 350 345 71
12 154 291 84 94 320 228 250 351 69 57 51 47 36 30 18 20 11 2 3 37 60 79 91 94 100 115 169 133 87 79 71 61 39 20 36 18 17 341 48 48 36 19 351 34 14 324 333 328
248 141 160 66 72 346 15 321 89 75 66 59 49 38 26 23 18 12 22 28 35 56 65 71 84 74 46 38 23 35 43 80 96 69 50 9 12 7 347 41 39 36 31 64 33 10 323 302 17
224 187 135 46 323 214 295 123 113 94 86 67 52 39 27 22 21 24 38 33 34 38 55 61 51 49 36 33 30 0 28 39 59 25 51 42 356 10 19 22 6 298 355 62 66 1 359 342 7
226 205 210 263 48 249 258 263 194 138 88 59 45 37 24 12 41 38 45 43 37 36 44 56 51 41 26 13 21 21 32 31 45 19 342 46 358 357 57 355 349 352 2 42 14 16 334 19 13
158 179 176 197 213 300 194 83 272 160 71 51 45 39 25 17 33 48 52 55 40 30 36 49 56 47 26 34 29 28 23 28 37 314 337 24 336 352 21 31 351 342 342 3 333 354 4 59 41
161 103 71 129 210 354 213 140 264 36 34 47 48 46 34 31 28 29 38 41 37 26 26 32 43 23 26 35 26 36 31 19 4 3 356 11 14 8 331 349 344 300 316 334 336 357 345 326 53
234 165 69 18 20 222 2 94 82 82 69 64 57 51 46 36 37 33 30 29 30 23 20 21 26 27 16 20 17 21 24 17 8 2 348 360 357 345 336 22 351 333 326 323 329 315 297 327 20
198 230 166 182 182 192 28 217 131 95 85 81 75 64 56 47 42 41 32 29 30 27 24 21 18 21 15 7 4 6 18 14 5 3 4 342 353 350 351 341 302 278 303 309 273 297 306 345 12
174 211 348 111 107 74 174 90 122 128 95 76 67 62 53 53 47 42 35 32 31 27 28 20 20 17 13 5 359 356 358 12 2 359 360 327 334 343 343 338 329 346 338 307 278 268 284 309 310
79 96 135 328 125 201 173 138 117 178 110 81 63 54 57 49 53 46 43 36 30 28 29 26 25 19 12 9 5 5 10 2 6 357 351 340 326 336 330 329 335 324 319 301 295 290 287 285 267
179 167 217 162 130 182 159 180 352 93 96 98 84 64 51 52 49 48 46 45 37 33 32 28 24 21 20 15 15 17 7 9 14 11 6 360 346 339 316 321 327 321 314 312 292 279 264 252 247
333 251 173 136 226 212 123 190 77 90 97 107 93 86 74 59 50 48 46 38 36 34 26 28 23 21 19 19 20 22 15 14 13 6 359 356 358 351 345 342 342 332 325 314 299 281 279 291 268